Reflectivity
20 15 6 -14 -20 -20 -20 -10 9 10 12 6 7 3 17 -20 23 22 14 21 26 6 4 21 16 6 6 7 -12 -20 -20 -20 -20 -20 -20 -20 -20 -20 -16 -19 -14 -11 -6 4 3 18 10 -20 -20 -11 -10 -20 -20 -17
31 28 16 -17 -4 -20 -20 -8 13 17 13 15 11 10 -15 17 21 14 17 30 34 31 11 14 -9 12 10 16 9 -18 -20 -20 -20 -20 -20 -20 -20 -20 -20 4 -20 -2 -18 14 10 18 -20 -20 -20 -20 -20 -20 -20 -14
31 36 31 -19 -13 -2 15 -20 -19 -4 13 13 11 16 23 19 20 15 26 31 28 17 17 13 -3 9 -8 -20 -20 -20 -20 -20 -20 -20 -20 -20 -20 -20 -20 -20 -20 -20 -20 -14 -20 -20 -20 -20 -20 -20 -20 -20 -18 -20
34 38 34 22 20 14 15 7 11 17 19 24 24 18 14 25 21 30 32 29 18 -20 4 -14 -11 -20 -20 -20 -20 -20 -20 -20 -20 -20 -20 -20 -20 -20 -20 -20 -20 -20 -20 -20 -20 -20 -14 -13 -20 -20 -20 -20 -5 -20
37 40 34 24 26 26 23 24 14 18 16 13 8 20 24 30 28 25 3 -20 3 9 -11 -20 -20 -20 -19 -20 -20 -20 -20 -20 -20 -20 -20 -20 -20 -20 -20 -20 -20 -20 -20 -14 2 -20 -20 -17 -20 -20 -20 -20 -20 -20
34 36 39 29 22 17 17 19 21 22 16 21 20 18 25 23 16 -15 16 17 8 8 -7 -9 -14 -20 -20 -20 -20 -20 -20 -20 -20 -20 -20 -20 -20 -20 -20 -20 -20 -20 -20 -20 -19 0 5 -20 -10 -20 -20 -20 -20 -20
32 35 36 39 38 37 34 31 29 29 34 32 26 17 14 11 17 13 -20 -20 -17 -20 -10 -1 -15 -20 -19 -20 -20 -20 -20 -20 -20 -20 -20 -20 -20 -20 -20 -20 -20 -20 -20 -20 -20 -20 -20 -20 -20 -20 -20 -20 -20 -20
33 33 34 35 35 29 27 30 30 29 22 11 9 14 15 17 13 12 13 6 1 -20 -20 -8 -7 -20 -20 -20 -20 -20 -20 -20 -20 -20 -20 -20 -20 -20 -20 -20 -20 -20 -13 -6 -20 -20 -20 -20 -20 -20 -20 -20 -20 -20
29 25 33 31 31 33 32 30 28 24 16 5 -14 -13 2 6 -13 0 -6 -17 -10 -17 -20 -20 -20 1 -20 -17 -20 -20 -20 -20 -20 -9 -5 -20 -0 -16 -20 -20 -20 -20 3 -16 -20 -20 -20 -20 -20 -20 -20 -20 -20 -20
17 19 26 26 30 29 27 25 15 5 -1 8 11 9 8 -14 1 -20 -20 -20 -20 -20 -20 -20 -20 -20 -20 -20 -15 -18 -14 -1 -3 2 -20 -7 5 -20 -20 -20 -20 -20 -20 -20 -20 -20 -20 -20 -19 -20 -20 -20 -20 -20
11 5 2 1 8 12 14 12 2 -12 0 -2 -20 -20 -3 -15 -20 -20 -20 -20 -20 -20 -20 -20 -20 -20 -20 -20 -0 -0 -1 1 -0 -4 0 2 2 -20 -20 -20 -20 -20 -20 -20 -20 -20 -20 -20 -20 -20 -20 -20 -20 -20
15 -5 -17 -19 -1 -8 -18 -20 -17 -20 -17 -13 -14 -20 -20 -20 -20 -20 -20 -20 -20 -20 -20 -20 -20 -20 -9 -20 -13 -9 -7 -4 3 -6 -16 -4 -11 -20 -20 -20 -20 -20 -20 -20 -20 -13 9 10 -3 -20 -20 -20 -20 -20
6 -20 -18 -7 -6 -7 -5 -13 -2 7 8 0 -10 -20 -20 -20 -13 -20 -20 -20 -20 -20 -20 -20 -12 -20 -20 -18 -15 -2 -1 1 -18 -1 -18 5 -20 -20 -20 -20 -20 -20 -20 -20 -20 -20 -20 -20 -12 -20 -20 -20 -20 -20
-20 -20 -20 -20 -20 -20 -20 -6 -20 -17 -20 -20 7 -20 -20 -20 -20 -20 -20 -20 -20 -20 -20 -20 -20 -20 -20 -20 -20 -18 -5 -5 -0 -2 -11 -13 -20 -20 -20 -20 -20 -20 -20 -20 -20 -20 -20 -20 -20 -20 -20 -20 -20 -4
-20 -20 -20 -20 -20 -20 -20 -20 -20 -20 -20 -20 -20 -15 -0 -12 -6 -20 -15 -18 -20 -20 -20 -20 -20 -20 -20 -20 -20 -20 -1 -8 -11 -19 2 -15 -20 -20 -20 -20 -20 -20 -20 -20 -20 -20 -20 -20 -20 -20 -20 -13 -20 -20
-20 -20 -20 -20 -20 -20 -20 -20 -20 -20 -20 -18 5 4 10 -14 -12 -10 -20 -5 -9 -20 -20 -20 -20 -20 -20 -20 -20 -20 -20 -20 -20 9 -1 -20 -20 -20 -20 -20 -20 -20 -20 -20 -20 -20 -20 -20 -20 -14 -20 -20 -20 -20
-20 -20 -20 -20 -20 -20 -20 -20 -20 -20 -3 3 12 0 -1 -13 9 11 2 -8 -20 5 -20 -20 -20 -20 -20 -20 -20 -20 -20 3 1 -3 -20 -20 -20 -20 -20 -20 -20 -20 -20 -20 -20 -20 -13 -20 -20 -14 0 -18 1 -3
-20 -20 -20 -20 -20 -20 -20 -20 -20 -20 1 -5 5 8 -10 4 3 2 1 -20 -3 -20 -20 -20 -20 -20 -20 -20 -17 -20 -6 -12 -20 -20 -6 -20 -20 -19 -20 -14 -20 -20 -20 -20 -20 -20 -20 -20 -18 -4 -10 -19 -20 -15
-20 -20 -20 -20 -20 -20 -20 -20 -20 -6 8 5 6 2 -0 -1 -0 -3 -13 -16 -15 -20 -20 -20 -0 -20 2 5 2 0 -4 -20 -7 -11 -17 -20 -20 -20 -20 -20 -20 -18 -20 -8 -3 -1 -1 -10 -12 -8 -5 -2 -1 1
-20 -20 -20 -20 -20 -20 -20 -20 -20 -16 3 -1 4 -7 -3 -1 -8 -2 -20 -20 -20 -20 -20 -12 5 -12 -10 -18 -15 -17 -20 -20 -20 -14 -3 -20 -15 -20 -15 -16 -3 -8 -2 -0 -2 -15 -6 -9 -4 -3 -4 -2 5 8
-20 -20 -20 -20 -20 -20 -20 -20 -3 -20 -20 -2 -12 -20 -7 -20 -12 -20 -20 -20 -15 -20 -20 -2 -20 -20 -20 -20 -20 -20 -20 -20 -20 -20 -20 -5 1 1 -7 7 -20 -16 -20 -8 -4 -2 -10 -2 -5 -1 6 9 4 4
-20 -20 -20 -20 -20 -20 -16 -20 -14 -20 2 -20 -20 -20 0 -1 -3 -9 -20 -14 -20 -4 -17 -12 -7 -20 -20 -20 -20 -20 -20 -20 -20 -9 -3 -20 -3 2 1 -3 -1 -1 -5 3 -2 -2 -2 -3 -1 1 6 6 -6 5
-20 -20 -20 -20 -20 -20 -20 -20 -20 -20 -20 -20 -20 -20 -20 -20 -20 -20 -20 -20 -14 -20 -20 -20 -20 -20 -20 -20 -10 -12 -20 -20 -20 -12 -20 -0 2 1 -2 -1 -3 -3 -0 -4 -1 -1 -2 -12 -20 3 -1 0 7 8
-20 -20 -20 -20 -20 -12 -20 -20 -20 -20 -20 -20 -20 -20 -20 -20 -20 -20 -20 -20 -20 -20 -20 -20 -20 -20 -13 -20 -18 -17 -20 -20 -20 -5 0 -16 -3 0 -4 -0 -16 -6 -4 -17 -2 -3 -3 5 -14 -2 2 3 2 3
-20 -20 -20 -20 -20 -20 -20 -20 -20 -20 -20 -20 -20 -20 -20 -20 -20 -20 -20 -20 -20 -20 -20 -20 -20 -20 -16 -20 -20 -8 -20 -3 -1 -19 -1 -1 -6 -1 -10 -20 -19 -8 -2 -2 2 3 3 6 3 6 3 4 3 0
-20 -20 -20 -20 -20 -20 -20 -20 -20 -20 -20 -20 -20 -20 -20 -20 -20 -20 -20 -20 -20 -20 -9 -15 -4 -6 -14 -10 -20 -16 -6 -20 -20 -13 -1 -6 -10 -2 -3 -2 -0 0 -14 2 3 3 2 2 4 2 2 -12 -14 -7
-20 -20 -20 -20 -20 -20 -20 -20 -20 -20 -20 -20 -20 -20 -20 -20 -20 -20 -20 -20 -20 -20 -20 -20 -20 -13 -18 -20 -20 -20 -20 -15 -14 -14 -20 -20 -20 -14 -2 -2 -1 -9 -20 -13 -1 -0 -0 -4 -0 1 3 2 1 -4
-20 -20 -20 -6 -20 -20 -20 -20 -20 -20 -20 -20 -20 -20 -20 -20 -20 -20 -20 -20 -20 -20 -20 -20 -20 -20 -20 -20 -19 -18 -6 -15 -20 -20 -20 -12 -6 -20 -20 -20 -20 -20 -13 -20 -6 -18 -18 -5 -3 0 2 1 -2 -12
-1 -19 -10 -20 -20 -20 -20 -20 -20 -20 -20 -20 -20 -20 -20 -20 -20 -20 -20 -20 -20 -20 -20 -4 -4 -11 -6 -18 -20 -10 -1 -2 -20 -18 -20 -18 1 1 2 -3 -20 -14 -13 -20 -20 -20 -20 -9 -3 -1 -2 0 -2 -5
-8 -16 -10 -20 -20 -20 -3 -11 -6 -8 -20 -20 -20 -20 -20 -20 -13 -20 -20 -20 -20 -3 -7 -7 -3 -1 -2 -1 -3 -6 -15 -15 -2 -1 -2 -1 -1 -20 -3 0 1 -0 -0 -1 -0 -3 -18 -14 -20 -18 -7 -5 -3 -11
-17 -20 -20 -20 -20 -5 -4 -4 -5 -12 -20 -17 -20 -17 -10 -17 -7 -20 -20 -4 -4 -14 -12 -8 -4 -2 -1 -2 -2 -2 -3 -9 -20 -20 -20 -12 -20 -10 0 -14 -2 -4 -0 -1 -2 -5 -5 -6 -2 -5 -20 -20 -20 -20
-1 -14 -20 -20 -20 -9 -20 -5 -5 -6 -5 -4 -6 -4 -3 -2 -3 -18 -2 -2 -2 -2 -4 -12 -4 -1 -14 -1 -1 -1 -20 -20 -20 -20 -20 -20 -20 -20 -20 -20 -20 -20 -4 -4 -5 -19 -20 -20 -19 -19 -20 -20 -20 -20
-2 -11 -20 -20 -20 -20 -20 -11 -20 -20 -20 -20 -20 -19 -19 -20 -20 -20 -5 -3 -3 -19 -1 3 -15 5 -14 -15 -4 -5 -17 -20 -20 -20 -20 -20 -20 -20 -20 -20 -20 -20 -20 -20 -20 -20 -20 -20 -20 -20 -20 -20 -20 -20
Wind_Speed
22 25 29 39 41 41 40 39 41 41 39 40 38 36 33 35 28 10 4 2 1 1 11 19 11 18 14 11 14 18 11 8 8 7 5 4 3 7 6 10 8 10 8 7 9 6 9 10 8 6 5 5 3 3
18 24 22 17 17 22 24 27 34 43 44 40 37 35 36 33 27 14 6 2 5 0 9 15 13 7 16 19 10 17 3 17 6 6 4 3 3 5 9 7 9 6 4 3 2 1 7 5 3 4 1 4 4 3
14 25 8 14 21 22 27 28 31 36 41 40 38 38 35 31 24 11 10 6 7 10 8 8 10 12 11 8 14 10 6 5 5 4 5 2 4 7 6 6 9 8 5 1 3 7 8 5 4 4 3 3 3 2
14 21 16 26 28 31 33 35 37 40 43 42 40 37 33 27 18 19 12 11 8 8 8 8 5 6 1 5 6 7 11 4 8 6 4 3 3 3 5 1 7 6 9 7 4 5 6 5 6 5 4 4 3 1
17 17 21 28 33 37 40 43 44 42 41 40 37 32 26 20 15 13 7 1 3 6 9 11 16 11 9 11 13 13 13 12 8 4 3 3 3 3 1 2 3 6 8 6 1 8 5 7 7 7 7 6 2 2
18 21 21 28 33 37 39 41 41 39 38 35 30 26 24 24 21 12 6 4 9 7 9 6 5 11 13 14 13 12 8 5 2 3 3 3 4 4 2 3 7 5 4 3 2 7 7 10 9 8 6 3 2 1
17 21 23 26 30 33 36 37 33 30 29 27 25 24 17 11 5 3 4 9 5 7 6 6 6 4 6 9 8 8 6 3 4 3 0 3 4 2 1 3 7 4 6 6 10 10 10 10 7 6 6 5 3 3
18 21 24 26 29 28 30 30 27 27 27 26 26 27 27 26 19 9 7 6 3 6 6 5 5 8 2 8 5 2 4 3 3 3 2 2 4 1 3 6 2 6 6 9 8 2 6 10 8 7 5 5 2 2
22 22 25 25 26 29 27 27 27 28 27 26 23 17 8 6 4 5 1 1 5 5 6 4 9 7 4 4 5 2 1 3 1 1 3 3 4 3 6 4 5 9 9 7 7 7 8 7 7 5 4 3 1 2
24 27 26 26 27 26 25 23 20 19 17 14 4 7 5 4 1 4 3 4 5 4 3 6 8 7 9 7 3 4 1 4 4 3 5 3 4 7 4 2 5 6 6 8 8 7 6 6 5 4 4 5 4 4
22 23 24 24 23 20 17 14 10 9 7 5 5 5 6 2 3 3 4 3 3 4 4 7 11 12 8 6 5 2 3 3 4 5 4 5 3 6 5 7 8 8 7 6 6 7 3 5 6 5 5 4 4 3
22 22 21 20 18 16 14 12 12 7 3 6 10 6 2 2 3 6 3 2 2 5 6 11 12 9 5 4 4 3 3 2 3 6 3 4 6 10 9 9 9 9 9 10 10 10 8 7 6 5 5 4 5 5
21 21 19 19 21 21 23 22 20 13 8 5 5 5 1 4 4 2 5 3 5 6 10 11 10 5 4 4 4 2 3 3 7 4 4 5 10 9 11 9 9 9 10 11 11 10 10 9 8 5 6 6 2 5
20 20 19 19 18 17 15 12 6 1 4 5 3 6 4 3 4 5 6 8 6 11 13 11 6 4 3 3 3 4 3 5 4 5 4 6 10 11 10 9 11 11 9 7 9 9 8 8 8 7 6 4 3 3
20 18 17 14 14 15 13 11 8 5 5 5 5 6 5 3 4 3 3 8 12 11 10 9 5 5 3 5 2 5 4 5 5 2 6 7 10 11 11 10 11 11 9 8 8 8 8 7 6 6 4 3 4 2
21 17 9 11 12 12 8 6 5 4 4 5 6 5 4 7 6 4 7 7 8 7 6 4 4 4 3 5 4 4 7 4 4 6 6 8 10 10 11 9 10 10 9 9 8 8 7 6 4 5 4 4 2 2
10 5 6 8 8 11 12 4 5 7 5 5 5 5 7 6 6 4 5 4 3 2 2 3 4 3 4 3 4 3 2 6 8 7 5 8 10 10 9 10 10 10 9 9 8 8 7 6 5 4 3 5 1 4
10 9 12 10 6 5 4 6 5 6 8 6 5 6 6 4 4 4 3 3 1 3 2 3 4 3 3 4 4 4 5 4 5 6 6 7 9 9 9 11 10 10 9 9 8 7 7 5 5 4 3 4 4 5
11 10 15 12 5 3 4 5 4 6 6 4 4 5 5 4 5 4 3 5 5 3 3 2 3 2 3 3 6 6 7 5 7 6 6 7 8 10 10 10 10 10 9 9 8 5 5 3 3 2 2 0 2 2
18 18 13 9 9 4 6 5 3 6 4 3 3 4 3 3 2 3 5 5 3 2 3 3 3 3 3 4 4 5 6 6 8 8 7 7 7 10 10 9 7 9 8 7 6 5 5 4 3 2 2 2 2 1
7 8 9 6 5 8 5 3 5 4 4 5 2 2 4 3 3 3 3 4 3 2 3 3 4 4 5 4 4 4 6 7 6 5 9 8 8 8 7 7 9 7 6 6 5 4 2 3 4 3 2 1 1 1
3 8 3 5 5 5 5 6 4 3 4 4 3 2 3 2 2 3 3 1 2 3 3 2 3 4 4 3 3 2 4 7 6 5 9 10 9 8 8 7 7 6 6 5 5 5 4 4 4 2 1 3 2 1
3 4 4 5 5 6 3 2 4 3 4 3 2 3 2 2 2 2 1 1 3 3 2 3 4 5 5 4 4 4 5 6 5 6 8 6 7 7 7 7 6 6 6 5 5 5 5 5 3 2 3 2 1 2
2 5 5 5 5 4 1 3 3 3 3 2 2 3 2 2 2 1 1 1 3 3 3 4 4 4 4 5 4 5 5 3 6 6 6 8 7 7 7 6 6 5 6 6 5 5 5 5 5 4 2 2 1 2
3 5 3 5 2 3 4 3 3 3 4 2 3 3 2 1 1 1 1 1 2 2 3 3 4 4 3 4 5 5 2 5 6 6 6 6 8 7 7 6 6 5 6 6 6 5 5 4 4 4 4 2 1 1
4 4 3 2 2 2 3 4 4 4 4 3 3 3 2 2 2 3 2 3 2 3 4 5 5 5 4 4 6 6 5 4 6 6 6 7 7 8 8 9 8 6 4 4 5 6 6 5 5 5 4 3 1 5
3 3 2 1 1 4 4 3 3 3 4 4 5 5 4 4 4 2 4 2 2 2 2 4 4 5 5 5 6 6 5 3 3 7 6 5 5 5 7 7 8 7 7 5 4 5 6 5 5 5 4 3 2 2
2 3 5 4 2 0 4 4 4 4 3 4 6 5 5 4 1 3 4 4 4 4 4 3 2 2 4 6 6 7 7 7 9 10 8 6 5 5 6 6 8 11 7 5 5 4 4 5 5 5 5 4 3 0
2 3 4 4 2 2 2 2 3 2 2 4 4 3 3 3 2 2 3 4 4 5 5 5 4 4 5 6 6 6 8 8 11 12 13 8 8 5 6 6 7 7 7 7 6 5 5 4 4 4 4 3 2 1
3 2 2 3 3 3 3 3 2 2 2 3 2 1 2 3 2 1 3 4 4 4 4 5 6 7 7 7 7 7 6 6 6 7 8 8 7 9 8 8 8 7 7 8 8 8 8 6 6 5 4 3 3 2
2 2 2 1 2 2 3 2 1 1 1 1 1 2 1 2 2 1 1 1 2 3 4 5 6 7 7 8 8 9 7 4 3 1 2 5 9 9 9 8 7 6 7 7 7 7 6 6 4 4 4 3 2 2
3 3 2 3 3 3 2 2 1 1 1 2 3 1 2 3 4 4 3 3 3 3 5 5 6 6 6 5 5 5 2 8 8 6 9 8 9 9 9 8 7 7 7 7 6 6 7 6 4 4 4 4 1 2
3 2 2 3 4 4 3 3 3 3 3 3 2 1 1 3 3 4 3 4 3 4 4 1 3 1 5 6 6 5 7 8 11 10 10 11 13 11 8 7 7 8 9 7 6 6 7 7 5 5 4 2 1 2
Wind_Direction
284 278 274 263 248 234 226 218 208 200 193 188 187 183 181 180 172 150 119 88 94 128 141 189 169 163 159 174 159 156 152 187 183 174 184 189 187 192 196 183 172 190 197 199 242 226 243 149 147 235 84 134 178 194
307 306 298 209 185 184 179 180 187 189 184 180 176 174 171 167 158 129 125 230 223 303 96 86 73 15 178 183 154 172 159 163 154 177 215 162 198 162 201 173 175 206 221 255 178 66 124 110 78 89 106 150 177 207
348 339 15 130 152 150 147 143 153 158 163 166 167 160 151 145 147 124 146 179 121 131 108 113 73 44 33 91 162 167 133 104 172 97 146 171 206 190 193 210 166 203 150 231 185 190 175 142 124 158 140 163 204 237
21 360 53 86 109 118 126 127 126 132 137 136 134 133 132 139 158 153 154 164 152 123 114 89 134 65 35 117 102 137 113 103 126 157 136 161 191 267 196 347 210 147 177 184 214 208 125 203 161 175 161 181 199 149
40 51 45 88 97 102 108 113 116 118 121 124 125 126 125 133 126 108 115 132 126 137 114 119 80 48 102 112 108 125 140 147 141 128 133 163 76 178 116 251 176 189 196 191 277 171 176 151 143 161 168 193 164 304
54 73 72 77 95 102 106 110 111 111 113 115 120 126 128 132 138 122 104 61 114 134 116 90 79 70 85 97 106 109 105 108 116 115 129 91 46 284 201 240 64 189 90 145 142 149 105 144 161 172 169 112 102 49
69 78 90 95 93 99 104 108 104 104 109 117 126 127 116 107 93 71 108 118 94 110 95 105 119 95 109 101 111 103 102 64 99 98 38 124 140 255 208 252 106 132 147 162 108 126 131 156 145 129 136 125 146 75
76 90 83 94 103 105 107 109 107 111 111 111 112 110 106 115 131 88 40 54 277 82 88 102 106 139 234 140 105 320 111 115 18 94 141 155 128 218 232 86 124 113 114 119 146 28 120 108 128 132 138 148 135 42
93 85 89 96 95 99 105 109 112 114 115 116 117 110 72 50 80 102 252 303 50 79 107 131 148 140 164 75 108 89 16 109 79 158 130 201 141 194 77 132 160 147 163 156 127 120 125 136 131 132 131 111 103 37
97 101 96 97 100 100 99 99 99 106 111 116 86 59 69 64 181 201 68 50 37 43 45 124 105 128 143 157 104 133 150 132 163 167 117 234 110 94 59 344 126 138 124 146 151 151 143 137 149 137 98 76 55 34
94 88 89 96 98 85 80 74 71 105 92 50 59 69 99 166 176 52 69 70 129 96 109 128 132 131 147 135 126 64 145 160 190 123 193 178 172 134 129 99 96 103 101 84 87 93 99 121 131 135 116 88 72 38
96 91 86 79 69 63 63 64 62 55 46 94 102 109 114 68 69 82 60 85 154 109 142 138 141 121 100 117 104 181 117 224 153 131 172 209 117 136 141 135 130 126 116 97 90 92 94 96 88 95 102 96 68 55
99 96 87 81 80 78 76 71 77 107 150 98 70 62 344 7 88 151 142 124 122 130 143 134 135 125 136 90 91 112 147 117 129 187 206 67 132 148 148 140 138 132 129 123 115 109 103 89 69 67 82 63 30 75
99 94 95 91 75 68 66 75 88 38 54 66 65 70 11 75 63 30 57 101 103 130 143 136 112 95 119 80 139 108 62 156 187 190 167 136 147 146 147 147 143 134 116 100 113 109 107 103 94 82 78 89 73 73
98 93 99 81 72 66 64 61 40 54 52 60 38 59 61 92 70 49 94 117 124 128 124 120 87 88 92 111 128 118 161 178 203 171 107 110 139 145 147 158 142 130 125 121 114 108 111 112 106 95 90 72 86 86
101 85 70 69 59 41 29 57 38 66 58 63 47 100 112 95 87 74 76 96 121 122 107 76 105 92 95 128 156 186 168 165 146 96 117 126 138 145 152 140 122 137 137 129 125 129 125 123 125 106 113 92 77 67
69 93 123 86 78 57 31 62 44 52 55 51 64 23 65 59 74 83 67 40 303 121 80 107 81 75 134 150 135 152 115 94 118 119 113 123 144 134 121 131 140 139 135 132 131 133 132 120 131 162 167 123 188 117
106 91 48 30 21 43 41 32 68 65 62 31 68 56 61 30 86 60 49 359 30 74 39 67 129 127 161 142 123 128 104 69 90 116 118 121 121 135 144 145 142 138 133 133 134 131 134 158 178 150 155 141 187 193
102 72 41 25 21 72 66 44 28 79 57 67 74 51 57 66 40 41 26 60 64 55 106 92 82 88 83 69 110 119 136 148 139 119 112 112 134 140 135 138 138 139 137 143 155 163 140 50 33 84 100 271 66 50
71 39 18 8 1 74 70 43 25 74 62 72 49 49 48 37 11 3 39 24 31 55 52 50 51 50 62 85 66 111 132 124 135 138 138 139 140 140 144 149 143 141 147 137 132 144 140 145 149 145 39 26 326 60
58 351 2 18 43 55 67 49 59 68 109 74 108 95 83 107 63 45 46 349 40 27 86 67 93 98 81 86 81 110 135 156 167 163 160 157 158 146 151 129 138 159 157 162 163 135 223 125 134 127 167 152 61 23
23 307 40 28 62 61 67 12 82 106 66 106 104 73 88 87 74 43 321 29 48 65 46 75 104 133 127 111 108 36 93 84 78 100 116 134 156 157 155 156 161 162 161 159 164 155 144 136 126 140 159 116 204 198
323 18 46 36 74 55 56 309 73 18 96 100 138 82 73 74 37 298 6 62 67 61 73 91 95 41 100 116 119 128 154 164 148 133 145 152 147 147 149 157 159 159 154 156 146 144 135 114 140 174 130 202 241 197
21 47 35 40 47 88 86 53 60 77 70 59 100 107 88 54 336 280 289 93 92 151 149 143 166 135 128 154 154 150 167 153 122 131 138 144 146 146 150 150 152 163 158 147 152 132 145 177 135 183 173 193 193 309
56 27 3 69 50 115 102 102 88 90 93 91 102 105 111 218 245 248 251 129 173 179 157 170 206 223 195 163 155 132 263 169 160 156 158 160 136 139 147 149 145 138 138 156 154 167 169 162 190 181 185 225 255 302
61 28 16 74 116 117 138 118 141 126 116 122 100 99 188 203 225 224 187 147 183 187 184 192 191 186 194 173 171 169 167 176 149 149 145 147 163 165 163 160 157 162 181 159 160 171 164 182 177 183 177 149 124 287
148 139 119 339 74 118 107 77 100 124 139 152 157 167 172 206 217 174 118 109 102 84 125 162 181 192 162 148 103 112 145 126 151 139 136 154 157 162 166 170 181 144 153 156 164 174 162 176 176 192 181 145 159 304
85 179 164 169 127 15 120 123 147 166 149 144 151 185 190 207 139 74 64 105 102 121 124 135 146 132 146 148 142 133 114 109 101 102 101 94 84 80 87 80 99 128 132 149 140 144 157 165 165 180 189 177 145 174
135 155 127 136 175 170 184 165 160 94 68 174 195 183 185 67 45 99 126 136 136 143 145 148 146 129 124 134 154 157 157 161 161 165 172 162 159 158 140 136 143 137 135 124 111 110 121 135 155 153 154 161 145 166
132 186 151 155 201 163 92 349 85 85 10 14 5 162 167 120 89 98 152 161 174 180 182 181 162 178 169 169 164 166 182 189 197 194 193 184 182 140 161 159 154 154 154 158 146 128 123 128 123 127 163 184 203 229
148 192 136 156 97 74 55 37 124 151 18 18 30 290 348 21 136 68 263 231 206 200 193 183 190 204 185 188 180 177 179 182 173 104 87 123 122 153 158 154 151 159 165 162 156 167 157 176 181 167 181 178 144 271
188 195 167 153 128 108 192 215 133 239 177 236 192 221 217 228 225 114 37 322 217 217 224 233 210 209 202 197 188 169 202 148 163 158 146 141 151 148 143 140 147 157 159 163 168 151 170 169 172 177 167 182 160 340
157 156 141 143 152 174 147 219 196 203 210 219 197 300 265 306 288 76 81 20 348 356 339 239 262 164 169 177 160 135 135 143 139 139 143 138 135 140 141 147 148 145 154 154 152 152 151 150 146 148 129 128 128 351